N505ZG KCRQ-MMTJ

Flight info

Callsign N505ZG
Flight time 0h 20m
Altitude VFR/115
Route
Aircraft C208/L-VGD/C

Departure

Time 2026-04-30 00:30
Airport McClellan-Palomar Airport (KCRQ)

Arrival

Time 2026-04-30 00:50
Airport General Abelardo L. Rodriguez International Airport (MMTJ)
Time Latitude Longitude Altitude Speed Heading
2026-04-30 00:23 33.12630 -117.27676 330 ft 0 kts 227°
2026-04-30 00:24 33.12617 -117.27695 329 ft 3 kts 256°
2026-04-30 00:24 33.12617 -117.27698 329 ft 0 kts 276°
2026-04-30 00:26 33.12637 -117.27723 327 ft 12 kts 344°
2026-04-30 00:27 33.12697 -117.27737 330 ft 6 kts 349°
2026-04-30 00:27 33.12775 -117.27751 330 ft 10 kts 33°
2026-04-30 00:27 33.12800 -117.27650 330 ft 19 kts 81°
2026-04-30 00:27 33.12821 -117.27520 330 ft 12 kts 79°
2026-04-30 00:28 33.12841 -117.27438 329 ft 0 kts 40°
2026-04-30 00:28 33.12890 -117.27442 333 ft 14 kts 348°
2026-04-30 00:28 33.12894 -117.27577 329 ft 23 kts 259°
2026-04-30 00:29 33.12843 -117.27901 332 ft 63 kts 260°
2026-04-30 00:29 33.12734 -117.28549 429 ft 92 kts 258°
2026-04-30 00:29 33.12593 -117.29356 621 ft 105 kts 254°
2026-04-30 00:29 33.12420 -117.30228 852 ft 110 kts 257°
2026-04-30 00:30 33.12256 -117.31144 1170 ft 114 kts 258°
2026-04-30 00:30 33.12063 -117.32083 1474 ft 119 kts 257°
2026-04-30 00:30 33.11858 -117.33039 1858 ft 119 kts 257°
2026-04-30 00:30 33.11667 -117.33984 2224 ft 115 kts 256°
2026-04-30 00:31 33.11346 -117.34805 2578 ft 111 kts 216°
2026-04-30 00:31 33.10625 -117.34836 2947 ft 108 kts 158°
2026-04-30 00:31 33.09928 -117.34531 3311 ft 103 kts 160°
2026-04-30 00:31 33.09393 -117.33934 3502 ft 120 kts 126°
2026-04-30 00:32 33.08855 -117.33054 3512 ft 142 kts 128°
2026-04-30 00:32 33.08454 -117.31910 3515 ft 156 kts 104°
2026-04-30 00:32 33.08207 -117.30614 3512 ft 163 kts 104°
2026-04-30 00:32 33.07949 -117.29295 3512 ft 167 kts 104°
2026-04-30 00:33 33.07683 -117.27936 3512 ft 167 kts 104°
2026-04-30 00:33 33.07417 -117.26587 3507 ft 167 kts 104°
2026-04-30 00:33 33.07125 -117.25262 3503 ft 166 kts 114°
2026-04-30 00:33 33.06331 -117.24309 3490 ft 163 kts 158°
2026-04-30 00:34 33.05230 -117.24046 3497 ft 162 kts 173°
2026-04-30 00:34 33.04114 -117.23864 3500 ft 162 kts 172°
2026-04-30 00:34 33.02985 -117.23749 3498 ft 162 kts 179°
2026-04-30 00:34 33.01857 -117.23751 3497 ft 161 kts 180°
2026-04-30 00:35 33.00742 -117.23755 3500 ft 161 kts 180°
2026-04-30 00:35 32.99606 -117.23763 3499 ft 161 kts 180°
2026-04-30 00:35 32.98493 -117.23768 3503 ft 162 kts 180°
2026-04-30 00:35 32.97367 -117.23768 3505 ft 162 kts 180°
2026-04-30 00:36 32.96232 -117.23768 3504 ft 161 kts 180°
2026-04-30 00:36 32.95117 -117.23768 3508 ft 162 kts 180°
2026-04-30 00:36 32.93989 -117.23769 3506 ft 163 kts 180°
2026-04-30 00:36 32.92853 -117.23769 3508 ft 162 kts 180°
2026-04-30 00:37 32.91738 -117.23641 3509 ft 162 kts 171°
2026-04-30 00:37 32.90612 -117.23462 3504 ft 162 kts 173°
2026-04-30 00:37 32.89512 -117.23159 3503 ft 164 kts 156°
2026-04-30 00:37 32.88507 -117.22542 3506 ft 163 kts 154°
2026-04-30 00:38 32.87496 -117.21935 3503 ft 163 kts 155°
2026-04-30 00:38 32.86479 -117.21320 3508 ft 163 kts 154°
2026-04-30 00:38 32.85475 -117.20722 3507 ft 163 kts 154°
2026-04-30 00:38 32.84465 -117.20115 3505 ft 163 kts 154°
2026-04-30 00:39 32.83428 -117.19489 3518 ft 166 kts 154°
2026-04-30 00:39 32.82413 -117.18881 3519 ft 166 kts 154°
2026-04-30 00:39 32.81382 -117.18264 3515 ft 164 kts 154°
2026-04-30 00:39 32.80371 -117.17659 3517 ft 164 kts 154°
2026-04-30 00:40 32.79347 -117.17046 3514 ft 163 kts 154°
2026-04-30 00:40 32.78332 -117.16444 3509 ft 163 kts 156°
2026-04-30 00:40 32.77229 -117.16326 3519 ft 162 kts 197°
2026-04-30 00:40 32.76257 -117.16967 3521 ft 162 kts 221°
2026-04-30 00:41 32.75310 -117.17697 3524 ft 162 kts 204°
2026-04-30 00:41 32.74275 -117.18212 3530 ft 162 kts 202°
2026-04-30 00:41 32.73173 -117.18421 3530 ft 163 kts 177°
2026-04-30 00:41 32.72098 -117.17996 3533 ft 165 kts 150°
2026-04-30 00:42 32.71113 -117.17304 3535 ft 164 kts 151°
2026-04-30 00:42 32.70114 -117.16630 3535 ft 165 kts 151°
2026-04-30 00:42 32.69131 -117.15928 3515 ft 165 kts 150°
2026-04-30 00:42 32.68151 -117.15237 3516 ft 165 kts 150°
2026-04-30 00:43 32.67163 -117.14539 3520 ft 166 kts 150°
2026-04-30 00:43 32.66176 -117.13842 3514 ft 166 kts 150°
2026-04-30 00:43 32.65181 -117.13137 3518 ft 166 kts 150°
2026-04-30 00:43 32.64188 -117.12431 3532 ft 166 kts 150°
2026-04-30 00:44 32.63271 -117.11602 3532 ft 167 kts 134°
2026-04-30 00:44 32.62629 -117.10451 3536 ft 167 kts 121°
2026-04-30 00:44 32.62048 -117.09262 3535 ft 168 kts 122°
2026-04-30 00:44 32.61454 -117.08052 3533 ft 169 kts 121°
2026-04-30 00:45 32.60875 -117.06858 3529 ft 168 kts 121°
2026-04-30 00:45 32.60290 -117.05656 3532 ft 167 kts 121°
2026-04-30 00:45 32.59707 -117.04458 3523 ft 168 kts 121°
2026-04-30 00:45 32.59111 -117.03249 3524 ft 169 kts 121°
2026-04-30 00:46 32.58521 -117.02047 3519 ft 168 kts 121°
2026-04-30 00:46 32.57936 -117.00851 3515 ft 166 kts 121°
2026-04-30 00:46 32.57386 -116.99756 3332 ft 145 kts 126°
2026-04-30 00:46 32.56726 -116.98891 3008 ft 140 kts 138°
2026-04-30 00:47 32.55961 -116.98145 2644 ft 141 kts 146°
2026-04-30 00:47 32.55087 -116.97683 2344 ft 137 kts 169°
2026-04-30 00:47 32.54179 -116.97594 2097 ft 126 kts 183°
2026-04-30 00:47 32.53337 -116.97273 1785 ft 129 kts 137°
2026-04-30 00:48 32.53020 -116.96334 1578 ft 121 kts 98°
2026-04-30 00:48 32.52915 -116.95376 1455 ft 114 kts 97°
2026-04-30 00:48 32.52843 -116.94426 1203 ft 120 kts 93°
2026-04-30 00:48 32.52944 -116.93489 1179 ft 113 kts 50°
2026-04-30 00:49 32.53594 -116.93184 1191 ft 100 kts 353°
2026-04-30 00:49 32.53977 -116.93727 969 ft 100 kts 258°
2026-04-30 00:49 32.53865 -116.94217 900 ft 84 kts 255°
2026-04-30 00:49 32.53840 -116.94898 692 ft 75 kts 272°
2026-04-30 00:50 32.53904 -116.95467 524 ft 66 kts 272°
2026-04-30 00:50 32.53992 -116.96141 495 ft 56 kts 275°
2026-04-30 00:50 32.54040 -116.96541 489 ft 44 kts 279°
2026-04-30 00:50 32.54071 -116.96765 488 ft 37 kts 277°
2026-04-30 00:51 32.54107 -116.97035 491 ft 23 kts 281°
2026-04-30 00:51 32.54207 -116.97309 493 ft 16 kts 311°
2026-04-30 00:51 32.54251 -116.97372 492 ft 13 kts 314°
2026-04-30 00:51 32.54331 -116.97443 497 ft 16 kts 284°
2026-04-30 00:52 32.54352 -116.97611 496 ft 19 kts 278°
2026-04-30 00:52 32.54373 -116.97757 490 ft 22 kts 281°
2026-04-30 00:52 32.54397 -116.97943 497 ft 13 kts 278°
2026-04-30 00:52 32.54442 -116.97981 496 ft 6 kts
2026-04-30 00:53 32.54471 -116.97934 497 ft 5 kts 96°
2026-04-30 00:53 32.54471 -116.97933 497 ft 0 kts 96°